Regional Weather Roundup
Issued by NWS

Home | Current Version | Previous Version | Text Only | Print | Product List | Glossary Off
Versions: 1 2 3 4 5 6 7 8 9 10 11 12 13 14 15 16 17 18 19 20 21 22 23 24 25 26 27 28 29 30 31 32 33 34 35 36 37 38 39 40 41 42 43 44 45 46 47 48 49 50

000
ASUS45 KCYS 291910
RWRWY

WYOMING REGIONAL WEATHER ROUNDUP
NATIONAL WEATHER SERVICE CHEYENNE WY
100 PM MDT THU SEP 29 2016

NOTE:  "FAIR" INDICATES FEW OR NO CLOUDS BELOW 12,000 FEET
WITH NO SIGNIFICANT WEATHER AND/OR OBSTRUCTIONS TO VISIBILITY.

WYZ001-292000-
YELLOWSTONE NATIONAL PARK

CITY           SKY/WX    TMP DP  RH WIND       PRES   REMARKS
LK YELLOWSTONE   N/A     58  43  57 VRB5      30.42F
W YELLOWSTONE  NOT AVBL

$$
WYZ002>013-054>058-071-098>099-292000-
NORTHERN WYOMING

CITY           SKY/WX    TMP DP  RH WIND       PRES   REMARKS
JACKSON        CLOUDY    57  41  54 CALM      30.36F
CODY           FAIR      75  39  27 S15       30.21F
GREYBULL       FAIR      76  46  34 S8        30.15F
WORLAND        FAIR      77  43  29 S13       30.17F
SHERIDAN       FAIR      69  50  50 CALM      30.15F
BUFFALO        PTSUNNY   77  42  28 S15       30.21F
GILLETTE       FAIR      75  46  35 SE22      30.20F
HULETT         FAIR      79  43  27 S14G24    30.23F
NEWCASTLE      FAIR      73  37  27 S26G32    30.26S

$$
WYZ014>020-022>026-101>103-292000-
CENTRAL WYOMING

CITY           SKY/WX    TMP DP  RH WIND       PRES   REMARKS
BIG PINEY      PTSUNNY   68  39  34 SW13      30.37F
PINEDALE       MOCLDY    64  36  34 S8        30.38F
DUBOIS         CLOUDY    57  41  54 S6        30.36F
LANDER         FAIR      67  43  41 VRB5      30.28F
RIVERTON       FAIR      66  45  46 S6        30.29F
CASPER         FAIR      74  41  30 SW21G29   30.30F
DOUGLAS        FAIR      77  39  25 CALM      30.28F

$$
WYZ021-027>030-104>119-292000-
SOUTHERN WYOMING

CITY           SKY/WX    TMP DP  RH WIND       PRES   REMARKS
EVANSTON       PTSUNNY   69  39  33 SW17G26   30.37F
FORT BRIDGER   CLOUDY    68  39  34 S6        30.40F
ROCK SPRINGS   FAIR      57  48  72 S20       30.39F
DIXON          FAIR      65  45  48 W12       30.46F
RAWLINS        LGT RAIN  58  45  62 SW16G28   30.44S
SARATOGA       FAIR      64  41  42 W16G24    30.44F
LARAMIE        FAIR      74  32  21 NE9       30.40F
CHEYENNE       FAIR      77  34  21 SE6       30.35F
TORRINGTON     FAIR      78  44  29 SE16G23   30.25F
PINE BLUFFS    FAIR      77  36  22 SE12      30.33F

$$



USA.gov is the U.S. government's official web portal to all federal, state and local government web resources and services.